{"data":{"norad_id":61538,"intl_designator":"2024-184G","name":"STARLINK-11325 [DTC]","alt_names":[],"object_type":"PAYLOAD","status":"ACTIVE","operator":null,"country":"US","launch_date":"2024-10-15","launch_site_code":"AFWTR","launch_vehicle":null,"mission":null,"orbit_class":"UNKNOWN","rcs_meters":null,"size_class":null,"mass_kg":null,"dimensions":null,"purposes":["comms"],"wikipedia_slug":null,"has_3d_model":false,"image_url":null,"decayed_at":null,"tle_current":{"epoch":"2026-09-21T17:54:00.834336Z","epoch_age_seconds":84753,"freshness":"FRESH","line1":"1 61538U 24184G   26264.74584299 -.00000486  00000+0  83992-6 0  9995","line2":"2 61538  53.1580 349.5197 0000797 113.6040 246.5061 15.69705325111216","mean_motion":15.69705325,"eccentricity":7.97e-5,"inclination_deg":53.158,"raan_deg":349.5197,"arg_perigee_deg":113.604,"mean_anomaly_deg":246.5061,"bstar":8.3992e-7,"rev_number":11121,"period_min":91.73696343293,"perigee_km":359.20311970635,"apogee_km":360.27713732063,"semimajor_km":6737.8771285135,"source":"CELESTRAK","updated_at":"2026-09-22T09:00:49.364839Z"}}}